time, Switch, Flow(0), Analog(2)
yyyy/mm/dd HH:MM:SS.fff, True=FILTERED|False=TOTAL, L/min, V
2023/07/07 14:00:03.574, True, 4.039, 0.144198
2023/07/07 14:00:04.078, True, 2.653, 0.142443
2023/07/07 14:00:04.582, True, 1.328, 0.144350
2023/07/07 14:00:05.078, True, 1.010, 0.145800
2023/07/07 14:00:05.581, True, 0.663, 0.145495
2023/07/07 14:00:06.078, True, 1.011, 0.143664
2023/07/07 14:00:06.582, True, 0.663, 0.142596
2023/07/07 14:00:07.086, True, 0.995, 0.142901
2023/07/07 14:00:07.582, True, 0.674, 0.144045
2023/07/07 14:00:08.085, True, 0.663, 0.146181
2023/07/07 14:00:08.590, True, 0.996, 0.144350
2023/07/07 14:00:09.094, True, 0.662, 0.146334
2023/07/07 14:00:09.590, True, 0.674, 0.143587
2023/07/07 14:00:10.094, True, 0.663, 0.145876
2023/07/07 14:00:10.598, True, 0.995, 0.144121
2023/07/07 14:00:11.094, True, 0.674, 0.147021
2023/07/07 14:00:11.598, True, 0.663, 0.144579
2023/07/07 14:00:12.102, True, 0.995, 0.145037
2023/07/07 14:00:12.597, True, 0.674, 0.144656
2023/07/07 14:00:13.102, True, 0.663, 0.142977
2023/07/07 14:00:13.598, True, 0.674, 0.144732
2023/07/07 14:00:14.102, True, 0.995, 0.146334
2023/07/07 14:00:14.606, True, 0.664, 0.146487
2023/07/07 14:00:15.102, True, 0.673, 0.145953
2023/07/07 14:00:15.605, True, 0.995, 0.145190
2023/07/07 14:00:16.110, True, 0.663, 0.145571
2023/07/07 14:00:16.605, True, 0.674, 0.147707
2023/07/07 14:00:17.110, True, 0.995, 0.145571
2023/07/07 14:00:17.614, True, 0.663, 0.144808
2023/07/07 14:00:18.118, True, 0.663, 0.146639
2023/07/07 14:00:18.614, True, 0.674, 0.146410
2023/07/07 14:00:19.117, True, 0.995, 0.145571
2023/07/07 14:00:19.622, True, 0.663, 0.144884
2023/07/07 14:00:20.118, True, 0.674, 0.146181
2023/07/07 14:00:20.622, True, 0.663, 0.145876
2023/07/07 14:00:21.126, True, 0.995, 0.145266
2023/07/07 14:00:21.622, True, 0.674, 0.144884
2023/07/07 14:00:22.125, True, 0.663, 0.145953
2023/07/07 14:00:22.630, True, 0.664, 0.144503
2023/07/07 14:00:23.126, True, 0.673, 0.145571
2023/07/07 14:00:23.630, True, 0.996, 0.143359
2023/07/07 14:00:24.134, True, 0.663, 0.143435
2023/07/07 14:00:24.630, True, 0.674, 0.145724
2023/07/07 14:00:25.134, True, 0.663, 0.145647
2023/07/07 14:00:25.630, True, 1.011, 0.145647
2023/07/07 14:00:26.134, True, 0.663, 0.145418
2023/07/07 14:00:26.638, True, 0.663, 0.145876
2023/07/07 14:00:27.134, True, 1.011, 0.143664
2023/07/07 14:00:27.638, True, 0.663, 0.146029
2023/07/07 14:00:28.142, True, 0.663, 0.147326
2023/07/07 14:00:28.646, True, 0.663, 0.144503
2023/07/07 14:00:29.142, True, 1.011, 0.144808
2023/07/07 14:00:29.646, True, 0.663, 0.144732
2023/07/07 14:00:30.142, True, 0.674, 0.144274
2023/07/07 14:00:30.645, True, 0.663, 0.145342
2023/07/07 14:00:31.150, True, 0.995, 0.144808
2023/07/07 14:00:31.646, True, 0.674, 0.144808
2023/07/07 14:00:32.150, True, 0.663, 0.145953
2023/07/07 14:00:32.654, True, 0.997, 0.144045
2023/07/07 14:00:33.150, True, 0.673, 0.144884
2023/07/07 14:00:33.654, True, 0.663, 0.147250
2023/07/07 14:00:34.158, True, 0.663, 0.142901
2023/07/07 14:00:34.662, True, 0.994, 0.144350
2023/07/07 14:00:35.158, True, 0.674, 0.147631
2023/07/07 14:00:35.662, True, 0.663, 0.146868
2023/07/07 14:00:36.166, True, 0.996, 0.143969
2023/07/07 14:00:36.662, True, 0.673, 0.144045
2023/07/07 14:00:37.166, True, 0.663, 0.146792
2023/07/07 14:00:37.670, True, 0.995, 0.144732
2023/07/07 14:00:38.166, True, 0.674, 0.145953
2023/07/07 14:00:38.670, True, 0.663, 0.143511
2023/07/07 14:00:39.174, True, 0.664, 0.146715
2023/07/07 14:00:39.669, True, 1.009, 0.147478
2023/07/07 14:00:40.174, True, 0.663, 0.144808
2023/07/07 14:00:40.678, True, 0.663, 0.145571
2023/07/07 14:00:41.174, True, 0.674, 0.145953
2023/07/07 14:00:41.678, True, 0.995, 0.146410
2023/07/07 14:00:42.182, True, 0.663, 0.145418
2023/07/07 14:00:42.678, True, 0.674, 0.146029
2023/07/07 14:00:43.182, True, 0.663, 0.144427
2023/07/07 14:00:43.686, True, 0.663, 0.147173
2023/07/07 14:00:44.182, True, 1.010, 0.144045
2023/07/07 14:00:44.685, True, 0.663, 0.145876
2023/07/07 14:00:45.181, True, 0.674, 0.145113
2023/07/07 14:00:45.686, True, 0.663, 0.145495
2023/07/07 14:00:46.189, True, 0.995, 0.145647
2023/07/07 14:00:46.685, True, 0.674, 0.146792
2023/07/07 14:00:47.190, True, 0.663, 0.146258
2023/07/07 14:00:47.694, True, 0.996, 0.143740
2023/07/07 14:00:48.189, True, 0.673, 0.146029
2023/07/07 14:00:48.693, True, 0.663, 0.145647
2023/07/07 14:00:49.198, True, 0.996, 0.144198
2023/07/07 14:00:49.694, True, 0.673, 0.143435
2023/07/07 14:00:50.197, True, 0.663, 0.146487
2023/07/07 14:00:50.702, True, 0.664, 0.143893
2023/07/07 14:00:51.198, True, 1.012, 0.146715
2023/07/07 14:00:51.702, True, 0.663, 0.144656
2023/07/07 14:00:52.206, True, 0.664, 0.144732
2023/07/07 14:00:52.702, True, 0.674, 0.145113
2023/07/07 14:00:53.206, True, 0.993, 0.147250
2023/07/07 14:00:53.710, True, 0.664, 0.146868
2023/07/07 14:00:54.206, True, 0.674, 0.144427
2023/07/07 14:00:54.710, True, 0.993, 0.146639
2023/07/07 14:00:55.214, True, 0.663, 0.142901
2023/07/07 14:00:55.710, True, 0.674, 0.143740
2023/07/07 14:00:56.214, True, 0.664, 0.145113
2023/07/07 14:00:56.718, True, 0.993, 0.143664
2023/07/07 14:00:57.214, True, 0.674, 0.146487
2023/07/07 14:00:57.718, True, 0.664, 0.144579
2023/07/07 14:00:58.222, True, 0.662, 0.142824
2023/07/07 14:00:58.718, True, 0.675, 0.144198
2023/07/07 14:00:59.222, True, 0.662, 0.144503
2023/07/07 14:00:59.726, True, 0.995, 0.144503
2023/07/07 14:01:00.221, True, 0.674, 0.145418
2023/07/07 14:01:00.726, True, 0.663, 0.143130
2023/07/07 14:01:01.230, True, 0.662, 0.145571
2023/07/07 14:01:01.726, True, 1.011, 0.145876
2023/07/07 14:01:02.230, True, 0.663, 0.145418
2023/07/07 14:01:02.734, True, 0.664, 0.144884
2023/07/07 14:01:03.230, True, 0.673, 0.146563
2023/07/07 14:01:03.734, True, 0.995, 0.145342
2023/07/07 14:01:04.238, True, 0.663, 0.144884
2023/07/07 14:01:04.734, True, 0.674, 0.143130
2023/07/07 14:01:05.238, True, 0.996, 0.146334
2023/07/07 14:01:05.742, True, 0.662, 0.142596
2023/07/07 14:01:06.237, True, 0.674, 0.145647
2023/07/07 14:01:06.742, True, 0.664, 0.144274
2023/07/07 14:01:07.246, True, 0.663, 0.145800
2023/07/07 14:01:07.742, True, 0.674, 0.146715
2023/07/07 14:01:08.246, True, 0.995, 0.147173
2023/07/07 14:01:08.750, True, 0.663, 0.145647
2023/07/07 14:01:09.246, True, 0.674, 0.145724
2023/07/07 14:01:09.750, True, 0.663, 0.147478
2023/07/07 14:01:10.246, True, 1.011, 0.145190
2023/07/07 14:01:10.750, True, 0.664, 0.145571
2023/07/07 14:01:11.254, True, 0.662, 0.145876
2023/07/07 14:01:11.750, True, 1.011, 0.146258
2023/07/07 14:01:12.253, True, 0.663, 0.146029
2023/07/07 14:01:12.758, True, 0.663, 0.146410
2023/07/07 14:01:13.254, True, 0.674, 0.145800
2023/07/07 14:01:13.758, True, 0.995, 0.146410
2023/07/07 14:01:14.261, True, 0.663, 0.145571
2023/07/07 14:01:14.758, True, 0.673, 0.146410
2023/07/07 14:01:15.262, True, 0.663, 0.147555
2023/07/07 14:01:15.766, True, 0.995, 0.146944
2023/07/07 14:01:16.262, True, 0.673, 0.148013
2023/07/07 14:01:16.766, True, 0.995, 0.147173
2023/07/07 14:01:17.270, True, 0.663, 0.148699
2023/07/07 14:01:17.766, True, 0.674, 0.147250
2023/07/07 14:01:18.270, True, 0.995, 0.148547
2023/07/07 14:01:18.765, True, 0.674, 0.149310
2023/07/07 14:01:19.270, True, 0.663, 0.148241
2023/07/07 14:01:19.774, True, 0.663, 0.148013
2023/07/07 14:01:20.270, True, 0.674, 0.147021
2023/07/07 14:01:20.774, True, 0.995, 0.147250
2023/07/07 14:01:21.278, True, 0.663, 0.149386
2023/07/07 14:01:21.774, True, 0.674, 0.149233
2023/07/07 14:01:22.278, True, 0.995, 0.148699
2023/07/07 14:01:22.782, True, 0.663, 0.147784
2023/07/07 14:01:23.277, True, 0.674, 0.151446
2023/07/07 14:01:23.782, True, 0.663, 0.148318
2023/07/07 14:01:24.278, True, 1.011, 0.147326
2023/07/07 14:01:24.782, True, 0.663, 0.149233
2023/07/07 14:01:25.286, True, 0.663, 0.149615
2023/07/07 14:01:25.782, True, 1.011, 0.149844
2023/07/07 14:01:26.286, True, 0.663, 0.149691
2023/07/07 14:01:26.790, True, 0.663, 0.148928
2023/07/07 14:01:27.286, True, 0.674, 0.150683
2023/07/07 14:01:27.790, True, 0.994, 0.150530
2023/07/07 14:01:28.294, True, 0.664, 0.148394
2023/07/07 14:01:28.790, True, 0.674, 0.148928
2023/07/07 14:01:29.294, True, 0.994, 0.150149
2023/07/07 14:01:29.798, True, 0.664, 0.147860
2023/07/07 14:01:30.294, True, 0.674, 0.150378
2023/07/07 14:01:30.798, True, 0.663, 0.152514
2023/07/07 14:01:31.302, True, 0.995, 0.150530
2023/07/07 14:01:31.798, True, 0.674, 0.151141
2023/07/07 14:01:32.302, True, 0.663, 0.150988
2023/07/07 14:01:32.806, True, 0.663, 0.151217
2023/07/07 14:01:33.302, True, 0.674, 0.151217
2023/07/07 14:01:33.806, True, 0.995, 0.154269
2023/07/07 14:01:34.310, True, 0.663, 0.151980
2023/07/07 14:01:34.806, True, 0.674, 0.152514
2023/07/07 14:01:35.310, True, 0.663, 0.151827
2023/07/07 14:01:35.814, True, 0.995, 0.150454
2023/07/07 14:01:36.309, True, 0.674, 0.150149
2023/07/07 14:01:36.813, True, 0.663, 0.152590
2023/07/07 14:01:37.309, True, 0.674, 0.152285
2023/07/07 14:01:37.814, True, 0.663, 0.149767
2023/07/07 14:01:38.318, True, 0.995, 0.150912
2023/07/07 14:01:38.814, True, 0.674, 0.151064
2023/07/07 14:01:39.318, True, 0.663, 0.151675
2023/07/07 14:01:39.822, True, 0.663, 0.152514
2023/07/07 14:01:40.318, True, 1.011, 0.152514
2023/07/07 14:01:40.822, True, 0.663, 0.149691
2023/07/07 14:01:41.318, True, 0.674, 0.153201
2023/07/07 14:01:41.821, True, 0.663, 0.150149
2023/07/07 14:01:42.326, True, 0.995, 0.150149
2023/07/07 14:01:42.830, True, 0.663, 0.152132
2023/07/07 14:01:43.326, True, 0.674, 0.153201
2023/07/07 14:01:43.830, True, 0.664, 0.152895
2023/07/07 14:01:44.334, True, 0.994, 0.151522
2023/07/07 14:01:44.830, True, 0.674, 0.152667
2023/07/07 14:01:45.334, True, 0.663, 0.151293
2023/07/07 14:01:45.838, True, 0.664, 0.152361
2023/07/07 14:01:46.334, True, 1.009, 0.152514
2023/07/07 14:01:46.838, True, 0.663, 0.153582
2023/07/07 14:01:47.334, True, 0.674, 0.151751
2023/07/07 14:01:47.838, True, 0.663, 0.152438
2023/07/07 14:01:48.342, True, 0.995, 0.151598
2023/07/07 14:01:48.838, True, 0.674, 0.153429
2023/07/07 14:01:49.342, True, 0.663, 0.152361
2023/07/07 14:01:49.846, True, 0.995, 0.153277
2023/07/07 14:01:50.342, True, 0.674, 0.152590
2023/07/07 14:01:50.846, True, 0.663, 0.150378
2023/07/07 14:01:51.350, True, 0.663, 0.155871
2023/07/07 14:01:51.846, True, 0.674, 0.155566
2023/07/07 14:01:52.350, True, 0.995, 0.151293
2023/07/07 14:01:52.854, True, 0.663, 0.154955
2023/07/07 14:01:53.350, True, 0.674, 0.155718
2023/07/07 14:01:53.854, True, 0.663, 0.150835
2023/07/07 14:01:54.358, True, 0.995, 0.152285
2023/07/07 14:01:54.854, True, 0.674, 0.153964
2023/07/07 14:01:55.358, True, 0.663, 0.153277
2023/07/07 14:01:55.862, True, 0.663, 0.154040
2023/07/07 14:01:56.358, True, 1.011, 0.152361
2023/07/07 14:01:56.862, True, 0.663, 0.150072
2023/07/07 14:01:57.366, True, 0.663, 0.154574
2023/07/07 14:01:57.862, True, 0.674, 0.152895
2023/07/07 14:01:58.366, True, 0.663, 0.150988
2023/07/07 14:01:58.870, True, 0.663, 0.152667
2023/07/07 14:01:59.366, True, 0.674, 0.154269
2023/07/07 14:01:59.870, True, 0.995, 0.152667
2023/07/07 14:02:00.374, True, 0.663, 0.153964
2023/07/07 14:02:00.870, True, 0.674, 0.154726
2023/07/07 14:02:01.374, True, 0.663, 0.152590
2023/07/07 14:02:01.878, True, 0.994, 0.151293
2023/07/07 14:02:02.374, True, 0.674, 0.154574
2023/07/07 14:02:02.878, True, 0.663, 0.154040
2023/07/07 14:02:03.382, True, 0.663, 0.154116
2023/07/07 14:02:03.878, True, 0.674, 0.152132
2023/07/07 14:02:04.382, True, 0.995, 0.154574
2023/07/07 14:02:04.878, True, 0.674, 0.153582
2023/07/07 14:02:05.382, True, 0.663, 0.150988
2023/07/07 14:02:05.886, True, 0.995, 0.154192
2023/07/07 14:02:06.382, True, 0.674, 0.152514
2023/07/07 14:02:06.886, True, 0.663, 0.154345
2023/07/07 14:02:07.390, True, 0.663, 0.154269
2023/07/07 14:02:07.886, True, 1.011, 0.153201
2023/07/07 14:02:08.390, True, 0.664, 0.153201
2023/07/07 14:02:08.894, True, 0.662, 0.152972
2023/07/07 14:02:09.390, True, 0.674, 0.151980
2023/07/07 14:02:09.894, True, 0.663, 0.156176
2023/07/07 14:02:10.398, True, 0.663, 0.153506
2023/07/07 14:02:10.902, True, 0.995, 0.152667
2023/07/07 14:02:11.398, True, 0.674, 0.153964
2023/07/07 14:02:11.902, True, 0.663, 0.153429
2023/07/07 14:02:12.406, True, 0.663, 0.153506
2023/07/07 14:02:12.902, True, 0.674, 0.154345
2023/07/07 14:02:13.406, True, 0.996, 0.152819
2023/07/07 14:02:13.902, True, 0.673, 0.155489
2023/07/07 14:02:14.406, True, 0.663, 0.154879
2023/07/07 14:02:14.910, True, 0.663, 0.153735
2023/07/07 14:02:15.405, True, 0.674, 0.153811
2023/07/07 14:02:15.910, True, 0.995, 0.153353
2023/07/07 14:02:16.413, True, 0.663, 0.153506
2023/07/07 14:02:16.910, True, 0.675, 0.154650
2023/07/07 14:02:17.414, True, 0.663, 0.153735
2023/07/07 14:02:17.918, True, 0.663, 0.153429
2023/07/07 14:02:18.414, True, 0.674, 0.153658
2023/07/07 14:02:18.918, True, 0.995, 0.152132
2023/07/07 14:02:19.422, True, 0.663, 0.153201
2023/07/07 14:02:19.918, True, 0.674, 0.154116
2023/07/07 14:02:20.421, True, 0.664, 0.154726
2023/07/07 14:02:20.926, True, 0.993, 0.154116
2023/07/07 14:02:21.422, True, 0.674, 0.154498
2023/07/07 14:02:21.926, True, 0.663, 0.152972
2023/07/07 14:02:22.429, True, 0.663, 0.153429
2023/07/07 14:02:22.926, True, 0.674, 0.154192
2023/07/07 14:02:23.429, True, 0.663, 0.155108
2023/07/07 14:02:23.934, True, 0.663, 0.153811
2023/07/07 14:02:24.430, True, 0.674, 0.154879
2023/07/07 14:02:24.934, True, 0.663, 0.153811
2023/07/07 14:02:25.438, True, 0.995, 0.155566
2023/07/07 14:02:25.934, True, 0.674, 0.155032
2023/07/07 14:02:26.438, True, 0.664, 0.154192
2023/07/07 14:02:26.942, True, 0.662, 0.150912
2023/07/07 14:02:27.437, True, 1.011, 0.154421
2023/07/07 14:02:27.942, True, 0.664, 0.154574
2023/07/07 14:02:28.446, True, 0.662, 0.153277
2023/07/07 14:02:28.942, True, 0.674, 0.154192
2023/07/07 14:02:29.446, True, 0.664, 0.152361
2023/07/07 14:02:29.942, True, 1.009, 0.152056
2023/07/07 14:02:30.446, True, 0.663, 0.152743
2023/07/07 14:02:30.950, True, 0.664, 0.154345
2023/07/07 14:02:31.453, True, 0.663, 0.153048
2023/07/07 14:02:31.950, True, 0.674, 0.152514
2023/07/07 14:02:32.454, True, 0.662, 0.154421
2023/07/07 14:02:32.958, True, 0.663, 0.152514
2023/07/07 14:02:33.454, True, 1.012, 0.155032
2023/07/07 14:02:33.958, True, 0.662, 0.153506
2023/07/07 14:02:34.462, True, 0.663, 0.153429
2023/07/07 14:02:34.958, True, 0.674, 0.153811
2023/07/07 14:02:35.462, True, 0.995, 0.153658
2023/07/07 14:02:35.958, True, 0.673, 0.154726
2023/07/07 14:02:36.462, True, 0.663, 0.151980
2023/07/07 14:02:36.966, True, 0.664, 0.152972
2023/07/07 14:02:37.462, True, 0.674, 0.153887
2023/07/07 14:02:37.965, True, 0.995, 0.153811
2023/07/07 14:02:38.470, True, 0.663, 0.154498
2023/07/07 14:02:38.966, True, 0.674, 0.155718
2023/07/07 14:02:39.470, True, 0.663, 0.153124
2023/07/07 14:02:39.974, True, 0.663, 0.152895
2023/07/07 14:02:40.470, True, 0.674, 0.153048
2023/07/07 14:02:40.974, True, 0.663, 0.153735
2023/07/07 14:02:41.478, True, 0.663, 0.154192
2023/07/07 14:02:41.974, True, 1.011, 0.151522
2023/07/07 14:02:42.478, True, 0.663, 0.152132
2023/07/07 14:02:42.982, True, 0.663, 0.152895
2023/07/07 14:02:43.478, True, 0.674, 0.153201
2023/07/07 14:02:43.982, True, 0.663, 0.152056
2023/07/07 14:02:44.486, True, 0.663, 0.151293
2023/07/07 14:02:44.982, True, 1.011, 0.155413
2023/07/07 14:02:45.486, True, 0.663, 0.154498
2023/07/07 14:02:45.982, True, 0.674, 0.153582
2023/07/07 14:02:46.486, True, 0.663, 0.153353
2023/07/07 14:02:46.990, True, 0.995, 0.153964
2023/07/07 14:02:47.486, True, 0.674, 0.154192
2023/07/07 14:02:47.989, True, 0.664, 0.153277
2023/07/07 14:02:48.494, True, 0.663, 0.154192
2023/07/07 14:02:48.998, True, 0.663, 0.155566
2023/07/07 14:02:49.494, True, 0.674, 0.152972
2023/07/07 14:02:49.998, True, 0.995, 0.155566
2023/07/07 14:02:50.494, True, 0.674, 0.153735
2023/07/07 14:02:50.998, True, 0.663, 0.156023
2023/07/07 14:02:51.502, True, 0.663, 0.152743
2023/07/07 14:02:51.998, True, 1.011, 0.152132
2023/07/07 14:02:52.502, True, 0.664, 0.153811
2023/07/07 14:02:53.006, True, 0.663, 0.153277
2023/07/07 14:02:53.502, True, 0.674, 0.154345
2023/07/07 14:02:54.006, True, 0.663, 0.155032
2023/07/07 14:02:54.509, True, 0.663, 0.155642
2023/07/07 14:02:55.006, True, 0.674, 0.152895
2023/07/07 14:02:55.510, True, 0.995, 0.154726
2023/07/07 14:02:56.014, True, 0.663, 0.153124
2023/07/07 14:02:56.510, True, 0.674, 0.154879
2023/07/07 14:02:57.014, True, 0.996, 0.153506
2023/07/07 14:02:57.510, True, 0.673, 0.154116
2023/07/07 14:02:58.014, True, 0.665, 0.156023
2023/07/07 14:02:58.518, True, 0.662, 0.152590
2023/07/07 14:02:59.022, True, 0.664, 0.153277
2023/07/07 14:02:59.518, True, 0.673, 0.153201
2023/07/07 14:03:00.021, True, 0.995, 0.152514
2023/07/07 14:03:00.518, True, 0.674, 0.152590
2023/07/07 14:03:01.022, True, 0.663, 0.155108
2023/07/07 14:03:01.526, True, 0.663, 0.153964
2023/07/07 14:03:02.022, True, 0.674, 0.153658
2023/07/07 14:03:02.526, True, 0.663, 0.152819
2023/07/07 14:03:03.030, True, 0.995, 0.154421
2023/07/07 14:03:03.526, True, 0.674, 0.151827
2023/07/07 14:03:04.030, True, 0.663, 0.152819
2023/07/07 14:03:04.534, True, 0.663, 0.152590
2023/07/07 14:03:05.038, True, 0.663, 0.153582
2023/07/07 14:03:05.534, True, 1.011, 0.153277
2023/07/07 14:03:06.038, True, 0.663, 0.153429
2023/07/07 14:03:06.542, True, 0.663, 0.152895
2023/07/07 14:03:07.038, True, 0.674, 0.153811
2023/07/07 14:03:07.542, True, 0.663, 0.154726
2023/07/07 14:03:08.038, True, 1.011, 0.155489
2023/07/07 14:03:08.542, True, 0.663, 0.152819
2023/07/07 14:03:09.046, True, 0.664, 0.151751
2023/07/07 14:03:09.542, True, 0.674, 0.154803
2023/07/07 14:03:10.046, True, 0.995, 0.154726
2023/07/07 14:03:10.550, True, 0.663, 0.153048
2023/07/07 14:03:11.046, True, 0.674, 0.153506
2023/07/07 14:03:11.550, True, 0.663, 0.151827
2023/07/07 14:03:12.054, True, 0.663, 0.153048
2023/07/07 14:03:12.550, True, 1.011, 0.153277
2023/07/07 14:03:13.054, True, 0.663, 0.155947
2023/07/07 14:03:13.558, True, 0.664, 0.155261
2023/07/07 14:03:14.054, True, 0.673, 0.154116
2023/07/07 14:03:14.558, True, 0.663, 0.152590
2023/07/07 14:03:15.062, True, 0.995, 0.154269
2023/07/07 14:03:15.558, True, 0.674, 0.151827
2023/07/07 14:03:16.062, True, 0.663, 0.153658
2023/07/07 14:03:16.566, True, 0.995, 0.152361
2023/07/07 14:03:17.062, True, 0.674, 0.154726
2023/07/07 14:03:17.566, True, 0.663, 0.154040
2023/07/07 14:03:18.070, True, 0.663, 0.152209
2023/07/07 14:03:18.566, True, 0.674, 0.150988
2023/07/07 14:03:19.070, True, 0.995, 0.153201
2023/07/07 14:03:19.574, True, 0.663, 0.155108
2023/07/07 14:03:20.070, True, 0.674, 0.153735
2023/07/07 14:03:20.574, True, 0.663, 0.152590
2023/07/07 14:03:21.078, True, 0.995, 0.153582
2023/07/07 14:03:21.574, True, 0.674, 0.155795
2023/07/07 14:03:22.078, True, 0.663, 0.153735
2023/07/07 14:03:22.582, True, 0.995, 0.152132
2023/07/07 14:03:23.078, True, 0.674, 0.152056
2023/07/07 14:03:23.582, True, 0.663, 0.153277
2023/07/07 14:03:24.086, True, 0.663, 0.156023
2023/07/07 14:03:24.582, True, 0.674, 0.153735
2023/07/07 14:03:25.086, True, 0.663, 0.152514
2023/07/07 14:03:25.590, True, 0.663, 0.152590
2023/07/07 14:03:26.086, True, 1.011, 0.154116
2023/07/07 14:03:26.590, True, 0.664, 0.155032
2023/07/07 14:03:27.094, True, 0.662, 0.154192
2023/07/07 14:03:27.590, True, 0.674, 0.156405
2023/07/07 14:03:28.094, True, 0.663, 0.151751
2023/07/07 14:03:28.598, True, 0.995, 0.153201
2023/07/07 14:03:29.094, True, 0.673, 0.153048
2023/07/07 14:03:29.598, True, 0.664, 0.151904
2023/07/07 14:03:30.102, True, 0.662, 0.154269
2023/07/07 14:03:30.598, True, 0.675, 0.153658
2023/07/07 14:03:31.102, True, 0.994, 0.155795
2023/07/07 14:03:31.606, True, 0.663, 0.153582
2023/07/07 14:03:32.102, True, 0.674, 0.153811
2023/07/07 14:03:32.606, True, 0.663, 0.153582
2023/07/07 14:03:33.110, True, 0.663, 0.153506
2023/07/07 14:03:33.606, True, 0.674, 0.151904
2023/07/07 14:03:34.110, True, 0.663, 0.152285
2023/07/07 14:03:34.614, True, 0.995, 0.152590
2023/07/07 14:03:35.110, True, 0.674, 0.152972
2023/07/07 14:03:35.614, True, 0.663, 0.153124
2023/07/07 14:03:36.118, True, 0.663, 0.151369
2023/07/07 14:03:36.614, True, 0.674, 0.155413
2023/07/07 14:03:37.118, True, 0.663, 0.153124
2023/07/07 14:03:37.622, True, 0.994, 0.152132
2023/07/07 14:03:38.118, True, 0.674, 0.154650
2023/07/07 14:03:38.622, True, 0.664, 0.153201
2023/07/07 14:03:39.126, True, 0.663, 0.151369
2023/07/07 14:03:39.622, True, 1.011, 0.153506
2023/07/07 14:03:40.126, True, 0.663, 0.153277
2023/07/07 14:03:40.630, True, 0.664, 0.151217
2023/07/07 14:03:41.126, True, 0.673, 0.150988
2023/07/07 14:03:41.630, True, 0.995, 0.153048
2023/07/07 14:03:42.134, True, 0.663, 0.153429
2023/07/07 14:03:42.630, True, 0.675, 0.151446
2023/07/07 14:03:43.134, True, 0.663, 0.152743
2023/07/07 14:03:43.630, True, 0.674, 0.152895
2023/07/07 14:03:44.134, True, 0.994, 0.154650
2023/07/07 14:03:44.638, True, 0.664, 0.153735
2023/07/07 14:03:45.134, True, 0.674, 0.152209
2023/07/07 14:03:45.637, True, 0.663, 0.153658
2023/07/07 14:03:46.142, True, 0.664, 0.152972
2023/07/07 14:03:46.638, True, 1.011, 0.152056
2023/07/07 14:03:47.142, True, 0.663, 0.152819
2023/07/07 14:03:47.646, True, 0.664, 0.153735
2023/07/07 14:03:48.142, True, 1.011, 0.153658
2023/07/07 14:03:48.646, True, 0.662, 0.152895
2023/07/07 14:03:49.150, True, 0.664, 0.150988
2023/07/07 14:03:49.646, True, 0.674, 0.152056
2023/07/07 14:03:50.150, True, 0.662, 0.153735
2023/07/07 14:03:50.654, True, 0.996, 0.151827
2023/07/07 14:03:51.150, True, 0.673, 0.153353
2023/07/07 14:03:51.654, True, 0.664, 0.151904
2023/07/07 14:03:52.158, True, 0.995, 0.152514
2023/07/07 14:03:52.654, True, 0.673, 0.151141
2023/07/07 14:03:53.157, True, 0.663, 0.150378
2023/07/07 14:03:53.662, True, 0.663, 0.152361
2023/07/07 14:03:54.158, True, 0.674, 0.152056
2023/07/07 14:03:54.661, True, 0.995, 0.152361
2023/07/07 14:03:55.166, True, 0.663, 0.152209
2023/07/07 14:03:55.662, True, 0.674, 0.153048
2023/07/07 14:03:56.165, True, 0.663, 0.153887
2023/07/07 14:03:56.661, True, 0.674, 0.152285
2023/07/07 14:03:57.166, True, 0.995, 0.152895
2023/07/07 14:03:57.669, True, 0.663, 0.154345
2023/07/07 14:03:58.174, True, 0.663, 0.154574
2023/07/07 14:03:58.670, True, 0.674, 0.151293
2023/07/07 14:03:59.174, True, 0.663, 0.153353
2023/07/07 14:03:59.678, True, 0.995, 0.152132
2023/07/07 14:04:00.174, True, 0.674, 0.152972
2023/07/07 14:04:00.678, True, 0.663, 0.152514
2023/07/07 14:04:01.182, True, 0.664, 0.151904
2023/07/07 14:04:01.678, True, 0.673, 0.152667
2023/07/07 14:04:02.182, True, 0.663, 0.153964
2023/07/07 14:04:02.686, True, 0.995, 0.154269
2023/07/07 14:04:03.182, True, 0.674, 0.153124
2023/07/07 14:04:03.686, True, 0.662, 0.152361
2023/07/07 14:04:04.190, True, 0.664, 0.153429
2023/07/07 14:04:04.686, True, 1.011, 0.152438
2023/07/07 14:04:05.190, True, 0.663, 0.152972
2023/07/07 14:04:05.694, True, 0.663, 0.154498
2023/07/07 14:04:06.190, True, 0.674, 0.151827
2023/07/07 14:04:06.694, True, 0.663, 0.152132
2023/07/07 14:04:07.198, True, 0.994, 0.154879
2023/07/07 14:04:07.693, True, 0.675, 0.154726
2023/07/07 14:04:08.198, True, 0.663, 0.153429
2023/07/07 14:04:08.701, True, 0.663, 0.151446
2023/07/07 14:04:09.198, True, 0.673, 0.153735
2023/07/07 14:04:09.702, True, 0.995, 0.152132
2023/07/07 14:04:10.206, True, 0.664, 0.151293
2023/07/07 14:04:10.702, True, 0.673, 0.152056
2023/07/07 14:04:11.206, True, 0.663, 0.151446
2023/07/07 14:04:11.710, True, 0.665, 0.151141
2023/07/07 14:04:12.205, True, 0.673, 0.150835
2023/07/07 14:04:12.710, True, 0.994, 0.152590